Volver al catálogo

STARLINK-5944

ActivoComunicacionesVLEO
NORAD 56001·PAYLOAD·🇺🇸 United States

Lanzado Mar 24, 2023 desde Cape Canaveral Space Force Station

Loading…

Próximos Pases (próximas 24 horas)

TLE

ActualizadoSource: CelesTrak SupGP

Época: Sep 15, 2026, 01:35 UTC

1 56001C 23042R   26258.06645833  .00002837  00000+0  10276-3 0  2587
2 56001  43.0020  74.2441 0001007 273.4959  89.0893 15.27579909    14

Sigue STARLINK-5944 en tiempo real con AllMySat

Download on the App Store